Location: Bh?mavarapp?du
(16.7041°N, 80.6518°E)
Time: 00:56:39
(UTC+00:00)

OAO 1 Rocket - Pass Details

Date: 21 April 2021
Orbit: 743 x 756 km, 35.0° (Epoch: 08 May)

Event Time Altitude Azimuth Distance (km) Brightness Sun altitude
Rises 13:32:37 0° 304° (NW) 3,166 9.3 -9.7°
Reaches altitude 10° 13:35:04 10° 306° (NW) 2,242 8.2 -10.3°
Maximum altitude 13:40:21 80° 33° (NNE) 752 4.4 -11.5°
Enters shadow 13:44:30 17° 119° (ESE) 1,825 5.8 -12.4°
